Location: Melara
(45.0500°N, 11.1833°E)
Time: 00:23:54
(UTC+00:00)

UKube-1 - Pass Details

Date: 03 June 2024
Orbit: 581 x 590 km, 98.3° (Epoch: 21 June)

Event Time Altitude Azimuth Distance (km) Brightness Sun altitude
Rises 00:31:41 0° 13° (NNE) 2,815 ? -20.3°
Reaches altitude 10° 00:33:50 10° 13° (NNE) 1,910 ? -20.2°
Maximum altitude 00:37:59 89° 293° (WNW) 589 ? -19.9°
Enters shadow 00:38:55 53° 197° (SSW) 717 ? -19.8°
